Time,TemperatureF,DewpointF,PressureIn,WindDirection,WindDirectionDegrees,WindSpeedMPH,WindSpeedGustMPH,Humidity,HourlyPrecipIn,Conditions,Clouds,dailyrainin,SoftwareType,DateUTC
2013-03-25 00:03:00,59.0,47.2,29.53,SSW,212,4.8,10.2,65,0.00,,,0.00,WUHU216HW,2013-03-24 23:03:00,
2013-03-25 00:08:00,59.1,46.9,29.53,SSE,165,4.9,8.2,64,0.00,,,0.00,WUHU216HW,2013-03-24 23:08:00,
2013-03-25 00:13:00,59.0,47.2,29.52,East,97,3.2,8.0,65,0.00,,,0.00,WUHU216HW,2013-03-24 23:13:00,
2013-03-25 00:18:00,59.0,47.2,29.52,SSE,158,2.6,5.5,65,0.00,,,0.00,WUHU216HW,2013-03-24 23:18:00,
2013-03-25 00:23:00,59.3,47.5,29.51,South,180,2.2,3.8,65,0.00,,,0.00,WUHU216HW,2013-03-24 23:23:00,
2013-03-25 00:28:00,59.3,47.1,29.51,SW,225,0.0,3.1,64,0.00,,,0.00,WUHU216HW,2013-03-24 23:28:00,
2013-03-25 00:33:00,59.3,47.3,29.50,ESE,113,0.0,2.2,64,0.00,,,0.00,WUHU216HW,2013-03-24 23:33:00,
2013-03-25 00:38:00,58.8,47.0,29.50,ENE,68,1.1,2.4,65,0.00,,,0.00,WUHU216HW,2013-03-24 23:38:00,
2013-03-25 00:43:00,58.6,46.8,29.50,ESE,113,3.8,4.6,65,0.00,,,0.00,WUHU216HW,2013-03-24 23:43:00,
2013-03-25 00:48:00,58.8,47.0,29.50,SE,135,3.5,4.6,65,0.00,,,0.00,WUHU216HW,2013-03-24 23:48:00,
2013-03-25 00:53:00,59.5,47.3,29.51,South,180,4.2,4.9,64,0.00,,,0.00,WUHU216HW,2013-03-24 23:53:00,
2013-03-25 00:58:00,59.7,47.5,29.50,SSE,165,6.2,9.1,64,0.00,,,0.00,WUHU216HW,2013-03-24 23:58:00,
2013-03-25 01:03:00,60.9,47.9,29.50,SSE,167,7.2,9.1,62,0.00,,,0.00,WUHU216HW,2013-03-25 00:03:00,
2013-03-25 01:08:00,61.1,47.6,29.51,South,190,5.6,9.1,61,0.00,,,0.00,WUHU216HW,2013-03-25 00:08:00,
2013-03-25 01:13:00,61.1,47.6,29.50,ESE,113,8.0,9.1,61,0.00,,,0.00,WUHU216HW,2013-03-25 00:13:00,
2013-03-25 01:18:00,61.3,47.8,29.50,East,90,4.9,10.5,61,0.00,,,0.00,WUHU216HW,2013-03-25 00:18:00,
2013-03-25 01:23:00,61.5,47.5,29.48,North,0,3.8,10.5,60,0.00,,,0.00,WUHU216HW,2013-03-25 00:23:00,
2013-03-25 01:28:00,61.8,47.9,29.47,WNW,293,2.2,8.2,60,0.00,,,0.00,WUHU216HW,2013-03-25 00:28:00,
2013-03-25 01:33:00,61.8,47.9,29.48,North,1,1.0,8.2,60,0.00,,,0.00,WUHU216HW,2013-03-25 00:33:00,
2013-03-25 01:38:00,61.5,47.5,29.50,NW,310,2.5,3.8,60,0.00,,,0.00,WUHU216HW,2013-03-25 00:38:00,
2013-03-25 01:43:00,61.5,47.5,29.50,West,270,1.8,3.8,60,0.00,,,0.00,WUHU216HW,2013-03-25 00:43:00,
2013-03-25 01:48:00,61.3,47.8,29.52,South,170,2.7,3.8,61,0.00,,,0.00,WUHU216HW,2013-03-25 00:48:00,
2013-03-25 01:53:00,60.9,47.9,29.51,ESE,113,6.9,6.9,62,0.00,,,0.00,WUHU216HW,2013-03-25 00:53:00,
2013-03-25 01:58:00,61.3,48.2,29.49,SSW,203,1.5,6.9,62,0.00,,,0.00,WUHU216HW,2013-03-25 00:58:00,
2013-03-25 02:03:00,61.3,48.2,29.48,SSW,203,1.3,4.4,62,0.00,,,0.00,WUHU216HW,2013-03-25 01:03:00,
2013-03-25 02:08:00,61.7,48.4,29.50,SSW,196,6.0,9.1,62,0.00,,,0.00,WUHU216HW,2013-03-25 01:08:00,
2013-03-25 02:13:00,61.5,48.4,29.47,ENE,68,6.9,11.8,62,0.00,,,0.00,WUHU216HW,2013-03-25 01:13:00,
2013-03-25 02:18:00,61.5,48.4,29.45,West,270,2.0,11.8,62,0.00,,,0.00,WUHU216HW,2013-03-25 01:18:00,
2013-03-25 02:23:00,61.5,48.4,29.47,SE,135,3.8,6.2,62,0.00,,,0.00,WUHU216HW,2013-03-25 01:23:00,
2013-03-25 02:28:00,61.8,48.7,29.47,NE,45,7.6,7.6,62,0.00,,,0.00,WUHU216HW,2013-03-25 01:28:00,
2013-03-25 02:33:00,61.8,48.7,29.46,ESE,113,5.9,9.6,62,0.00,,,0.00,WUHU216HW,2013-03-25 01:33:00,
2013-03-25 02:38:00,61.5,48.8,29.45,ESE,113,10.5,10.5,63,0.00,,,0.00,WUHU216HW,2013-03-25 01:38:00,
2013-03-25 02:43:00,61.5,49.2,29.45,South,180,9.6,17.2,64,0.00,,,0.00,WUHU216HW,2013-03-25 01:43:00,
2013-03-25 02:48:00,61.5,49.2,29.44,ESE,122,6.4,18.3,64,0.00,,,0.00,WUHU216HW,2013-03-25 01:48:00,
2013-03-25 02:53:00,61.5,49.2,29.44,ESE,108,11.4,18.3,64,0.00,,,0.00,WUHU216HW,2013-03-25 01:53:00,
2013-03-25 02:58:00,61.7,49.4,29.44,East,81,11.6,14.0,64,0.00,,,0.00,WUHU216HW,2013-03-25 01:58:00,
2013-03-25 03:03:00,61.7,49.4,29.44,East,90,9.6,14.0,64,0.00,,,0.00,WUHU216HW,2013-03-25 02:03:00,
2013-03-25 03:08:00,61.8,49.5,29.45,South,170,7.8,11.8,64,0.00,,,0.00,WUHU216HW,2013-03-25 02:08:00,
2013-03-25 03:13:00,62.0,49.7,29.44,SE,135,18.1,18.1,64,0.00,,,0.00,WUHU216HW,2013-03-25 02:13:00,
2013-03-25 03:18:00,62.0,49.7,29.45,South,180,15.6,18.1,64,0.00,,,0.00,WUHU216HW,2013-03-25 02:18:00,
2013-03-25 03:23:00,61.8,49.9,29.46,SE,135,11.4,15.6,65,0.00,,,0.00,WUHU216HW,2013-03-25 02:23:00,
2013-03-25 03:28:00,61.1,50.5,29.46,South,180,9.6,12.5,68,0.00,,,0.00,WUHU216HW,2013-03-25 02:28:00,
2013-03-25 03:33:00,60.0,51.0,29.45,ESE,113,11.6,17.6,73,0.00,,,0.00,WUHU216HW,2013-03-25 02:33:00,
2013-03-25 03:38:00,59.3,51.0,29.43,ESE,113,6.2,17.6,74,0.02,,,0.02,WUHU216HW,2013-03-25 02:38:00,
2013-03-25 03:43:00,59.1,50.5,29.42,SSE,159,9.4,12.5,73,0.02,,,0.02,WUHU216HW,2013-03-25 02:43:00,
2013-03-25 03:48:00,59.5,50.9,29.42,ESE,121,7.6,15.2,73,0.02,,,0.02,WUHU216HW,2013-03-25 02:48:00,
2013-03-25 03:53:00,60.0,51.0,29.42,WSW,248,4.6,15.2,72,0.02,,,0.02,WUHU216HW,2013-03-25 02:53:00,
2013-03-25 03:58:00,60.4,51.0,29.43,SSW,203,8.3,8.9,71,0.02,,,0.02,WUHU216HW,2013-03-25 02:58:00,
2013-03-25 04:03:00,60.0,51.0,29.44,SW,225,14.5,18.3,72,0.02,,,0.02,WUHU216HW,2013-03-25 03:03:00,
2013-03-25 04:08:00,59.9,51.2,29.45,South,170,13.9,19.9,73,0.02,,,0.02,WUHU216HW,2013-03-25 03:08:00,
2013-03-25 04:13:00,59.5,51.2,29.45,ESE,113,13.8,19.9,74,0.02,,,0.02,WUHU216HW,2013-03-25 03:13:00,
2013-03-25 04:18:00,59.3,51.0,29.44,SSE,158,4.0,17.2,74,0.02,,,0.02,WUHU216HW,2013-03-25 03:18:00,
2013-03-25 04:23:00,59.1,51.2,29.43,ESE,113,7.6,17.2,75,0.02,,,0.02,WUHU216HW,2013-03-25 03:23:00,
2013-03-25 04:28:00,59.1,51.2,29.41,South,184,6.8,9.6,75,0.02,,,0.02,WUHU216HW,2013-03-25 03:28:00,
2013-03-25 04:33:00,59.1,51.2,29.41,SSE,158,4.0,12.5,75,0.02,,,0.02,WUHU216HW,2013-03-25 03:33:00,
2013-03-25 04:38:00,59.0,51.0,29.42,SSE,158,11.6,12.5,75,0.00,,,0.02,WUHU216HW,2013-03-25 03:38:00,
2013-03-25 04:43:00,58.8,50.9,29.42,SSE,167,6.7,13.4,75,0.00,,,0.02,WUHU216HW,2013-03-25 03:43:00,
2013-03-25 04:48:00,58.8,50.9,29.42,SSE,158,12.9,13.4,75,0.00,,,0.02,WUHU216HW,2013-03-25 03:48:00,
2013-03-25 04:53:00,58.8,50.9,29.42,South,180,5.1,12.9,75,0.00,,,0.02,WUHU216HW,2013-03-25 03:53:00,
2013-03-25 04:58:00,59.0,50.9,29.42,SE,144,4.1,13.4,75,0.00,,,0.02,WUHU216HW,2013-03-25 03:58:00,
2013-03-25 05:00:00,59.0,51.0,29.42,SSE,158,14.9,14.9,75,0.00,,,0.02,WUHU216HW,2013-03-25 04:00:00,
2013-03-25 05:05:00,59.3,51.0,29.42,SSE,158,7.9,14.9,74,0.00,,,0.02,WUHU216HW,2013-03-25 04:05:00,
2013-03-25 05:10:00,59.5,51.2,29.42,SE,133,11.3,14.3,74,0.00,,,0.02,WUHU216HW,2013-03-25 04:10:00,
2013-03-25 05:15:00,59.3,51.0,29.42,SSE,158,11.1,14.7,74,0.00,,,0.02,WUHU216HW,2013-03-25 04:15:00,
2013-03-25 05:20:00,59.1,51.2,29.42,SE,135,7.8,14.7,75,0.00,,,0.02,WUHU216HW,2013-03-25 04:20:00,
2013-03-25 05:25:00,58.8,50.9,29.42,SSW,206,4.8,11.4,75,0.00,,,0.02,WUHU216HW,2013-03-25 04:25:00,
2013-03-25 05:30:00,58.8,50.9,29.42,South,180,5.1,8.0,75,0.00,,,0.02,WUHU216HW,2013-03-25 04:30:00,
2013-03-25 05:35:00,58.4,50.5,29.41,ESE,113,5.5,8.0,75,0.00,,,0.02,WUHU216HW,2013-03-25 04:35:00,
2013-03-25 05:40:00,58.2,50.3,29.41,SSE,158,11.6,11.6,75,0.00,,,0.02,WUHU216HW,2013-03-25 04:40:00,
2013-03-25 05:45:00,58.4,50.5,29.41,SSW,203,3.8,11.6,75,0.00,,,0.02,WUHU216HW,2013-03-25 04:45:00,
2013-03-25 05:50:00,58.1,50.1,29.41,SSE,158,6.7,11.1,75,0.00,,,0.02,WUHU216HW,2013-03-25 04:50:00,
2013-03-25 05:55:00,58.1,50.1,29.41,SSE,158,8.2,8.2,75,0.00,,,0.02,WUHU216HW,2013-03-25 04:55:00,
2013-03-25 06:00:00,57.9,50.0,29.42,South,170,5.3,11.1,75,0.00,,,0.02,WUHU216HW,2013-03-25 05:00:00,
2013-03-25 06:05:00,57.3,49.1,29.42,SSW,203,4.4,11.1,74,0.02,,,0.04,WUHU216HW,2013-03-25 05:05:00,
2013-03-25 06:10:00,56.8,47.1,29.42,South,180,6.7,8.0,70,0.06,,,0.08,WUHU216HW,2013-03-25 05:10:00,
2013-03-25 06:15:00,56.4,44.8,29.42,SW,225,8.0,15.2,65,0.12,,,0.14,WUHU216HW,2013-03-25 05:15:00,
2013-03-25 06:20:00,55.9,42.2,29.42,SSW,195,5.8,15.2,60,0.16,,,0.18,WUHU216HW,2013-03-25 05:20:00,
2013-03-25 06:25:00,55.5,39.5,29.42,South,180,5.8,10.9,55,0.18,,,0.20,WUHU216HW,2013-03-25 05:25:00,
2013-03-25 06:30:00,55.2,37.8,29.42,WSW,248,7.8,11.4,52,0.18,,,0.20,WUHU216HW,2013-03-25 05:30:00,
2013-03-25 06:35:00,55.2,36.8,29.42,SSW,212,12.3,14.3,50,0.18,,,0.20,WUHU216HW,2013-03-25 05:35:00,
2013-03-25 06:40:00,55.2,36.3,29.42,SSW,203,6.0,14.3,49,0.18,,,0.20,WUHU216HW,2013-03-25 05:40:00,
2013-03-25 06:45:00,55.2,35.7,29.42,SW,235,9.7,10.9,48,0.21,,,0.23,WUHU216HW,2013-03-25 05:45:00,
2013-03-25 06:50:00,55.4,35.3,29.42,SSW,203,11.1,11.1,47,0.23,,,0.25,WUHU216HW,2013-03-25 05:50:00,
2013-03-25 06:55:00,55.2,34.6,29.42,SW,225,6.8,11.1,46,0.23,,,0.25,WUHU216HW,2013-03-25 05:55:00,
2013-03-25 07:00:00,55.2,34.0,29.42,SSW,203,11.4,11.6,45,0.21,,,0.25,WUHU216HW,2013-03-25 06:00:00,
2013-03-25 07:05:00,55.2,34.6,29.42,SSW,196,5.9,11.6,46,0.21,,,0.25,WUHU216HW,2013-03-25 06:05:00,
2013-03-25 07:10:00,55.2,34.6,29.42,SSW,213,4.8,7.8,46,0.13,,,0.25,WUHU216HW,2013-03-25 06:10:00,
2013-03-25 07:15:00,55.2,36.3,29.42,WSW,250,6.3,8.7,49,0.09,,,0.25,WUHU216HW,2013-03-25 06:15:00,
2013-03-25 07:20:00,55.4,37.5,29.42,SW,225,2.1,8.7,51,0.07,,,0.25,WUHU216HW,2013-03-25 06:20:00,
2013-03-25 07:25:00,55.2,37.8,29.42,South,180,0.0,6.2,52,0.05,,,0.25,WUHU216HW,2013-03-25 06:25:00,
2013-03-25 07:30:00,55.4,37.9,29.42,SSW,203,2.2,4.9,52,0.05,,,0.25,WUHU216HW,2013-03-25 06:30:00,
2013-03-25 07:35:00,55.4,38.4,29.42,SSW,212,3.0,5.5,53,0.05,,,0.25,WUHU216HW,2013-03-25 06:35:00,
2013-03-25 07:40:00,55.2,38.2,29.42,West,270,8.9,8.9,53,0.07,,,0.27,WUHU216HW,2013-03-25 06:40:00,
2013-03-25 07:45:00,55.2,39.2,29.42,SW,225,8.9,15.2,55,0.04,,,0.27,WUHU216HW,2013-03-25 06:45:00,
2013-03-25 07:50:00,55.2,39.6,29.43,SSW,210,7.4,15.2,56,0.02,,,0.27,WUHU216HW,2013-03-25 06:50:00,
2013-03-25 07:55:00,55.2,40.6,29.43,SW,225,3.8,9.8,58,0.02,,,0.27,WUHU216HW,2013-03-25 06:55:00,
2013-03-25 08:00:00,55.2,40.6,29.43,SW,225,6.6,7.8,58,0.02,,,0.27,WUHU216HW,2013-03-25 07:00:00,
2013-03-25 08:05:00,55.2,40.6,29.43,SSW,203,3.1,7.8,58,0.02,,,0.27,WUHU216HW,2013-03-25 07:05:00,
2013-03-25 08:10:00,55.4,40.7,29.43,SW,225,3.1,6.0,58,0.02,,,0.27,WUHU216HW,2013-03-25 07:10:00,
2013-03-25 08:15:00,55.4,41.7,29.44,SW,225,4.2,9.8,60,0.02,,,0.27,WUHU216HW,2013-03-25 07:15:00,
2013-03-25 08:20:00,55.4,43.3,29.44,SSE,158,8.2,9.8,64,0.02,,,0.27,WUHU216HW,2013-03-25 07:20:00,
2013-03-25 08:25:00,55.2,44.0,29.44,SW,225,10.5,10.5,66,0.02,,,0.27,WUHU216HW,2013-03-25 07:25:00,
2013-03-25 08:30:00,55.2,44.8,29.44,SW,214,7.3,10.9,68,0.02,,,0.27,WUHU216HW,2013-03-25 07:30:00,
2013-03-25 08:35:00,55.4,44.6,29.45,SW,225,8.5,10.9,67,0.00,,,0.27,WUHU216HW,2013-03-25 07:35:00,
2013-03-25 08:40:00,55.5,44.7,29.45,WSW,248,5.3,8.5,67,0.00,,,0.27,WUHU216HW,2013-03-25 07:40:00,
2013-03-25 08:45:00,55.5,45.1,29.45,SSW,211,3.0,9.8,68,0.00,,,0.27,WUHU216HW,2013-03-25 07:45:00,
2013-03-25 08:50:00,55.7,46.1,29.44,SSW,203,12.9,12.9,70,0.00,,,0.27,WUHU216HW,2013-03-25 07:50:00,
2013-03-25 08:55:00,55.7,46.8,29.44,WSW,248,5.1,16.3,72,0.00,,,0.27,WUHU216HW,2013-03-25 07:55:00,
2013-03-25 09:00:00,55.9,47.0,29.44,SW,225,9.6,16.3,72,0.00,,,0.27,WUHU216HW,2013-03-25 08:00:00,
2013-03-25 09:05:00,56.1,47.5,29.44,SW,225,8.9,9.6,73,0.00,,,0.27,WUHU216HW,2013-03-25 08:05:00,
2013-03-25 09:10:00,56.3,48.4,29.44,SW,225,14.7,14.7,75,0.00,,,0.27,WUHU216HW,2013-03-25 08:10:00,
2013-03-25 09:15:00,55.9,48.0,29.44,SSW,203,8.3,14.7,75,0.00,,,0.27,WUHU216HW,2013-03-25 08:15:00,
2013-03-25 09:20:00,56.1,48.2,29.44,WSW,252,8.4,13.8,75,0.00,,,0.27,WUHU216HW,2013-03-25 08:20:00,
2013-03-25 09:25:00,56.1,48.5,29.44,SW,233,12.6,17.0,76,0.00,,,0.27,WUHU216HW,2013-03-25 08:25:00,
2013-03-25 09:30:00,56.4,48.9,29.43,West,270,8.2,17.0,76,0.00,,,0.27,WUHU216HW,2013-03-25 08:30:00,
2013-03-25 09:35:00,56.8,49.2,29.43,SE,144,5.1,8.9,76,0.00,,,0.27,WUHU216HW,2013-03-25 08:35:00,
2013-03-25 09:40:00,57.0,49.1,29.43,South,180,9.6,14.7,75,0.00,,,0.27,WUHU216HW,2013-03-25 08:40:00,
2013-03-25 09:45:00,57.7,49.8,29.42,SSW,196,5.6,14.7,75,0.00,,,0.27,WUHU216HW,2013-03-25 08:45:00,
2013-03-25 09:50:00,57.7,49.8,29.42,SW,225,6.9,9.1,75,0.00,,,0.27,WUHU216HW,2013-03-25 08:50:00,
2013-03-25 09:55:00,57.7,49.4,29.42,SW,225,19.6,19.6,74,0.00,,,0.27,WUHU216HW,2013-03-25 08:55:00,
2013-03-25 10:00:00,57.3,49.1,29.42,SSW,203,14.0,19.6,74,0.00,,,0.27,WUHU216HW,2013-03-25 09:00:00,
2013-03-25 10:05:00,57.3,49.1,29.42,WSW,248,6.9,16.3,74,0.00,,,0.27,WUHU216HW,2013-03-25 09:05:00,
2013-03-25 10:10:00,57.0,48.7,29.42,WSW,248,10.7,11.4,74,0.00,,,0.27,WUHU216HW,2013-03-25 09:10:00,
2013-03-25 10:15:00,57.0,48.7,29.42,SSW,194,10.8,16.7,74,0.00,,,0.27,WUHU216HW,2013-03-25 09:15:00,
2013-03-25 10:20:00,57.0,49.1,29.42,SSW,206,3.6,16.7,75,0.00,,,0.27,WUHU216HW,2013-03-25 09:20:00,
2013-03-25 10:25:00,57.2,49.2,29.42,WSW,242,11.6,14.3,75,0.00,,,0.27,WUHU216HW,2013-03-25 09:25:00,
2013-03-25 10:30:00,57.0,48.7,29.42,SW,225,9.3,14.3,74,0.00,,,0.27,WUHU216HW,2013-03-25 09:30:00,
2013-03-25 10:35:00,57.3,49.1,29.42,SSW,193,12.5,14.3,74,0.00,,,0.27,WUHU216HW,2013-03-25 09:35:00,
2013-03-25 10:40:00,57.3,49.1,29.41,South,181,4.0,14.3,75,0.00,,,0.27,WUHU216HW,2013-03-25 09:40:00,
2013-03-25 10:45:00,57.3,49.1,29.42,SW,225,18.1,18.1,74,0.00,,,0.27,WUHU216HW,2013-03-25 09:45:00,
2013-03-25 10:50:00,57.0,48.7,29.41,South,189,6.4,18.1,74,0.00,,,0.27,WUHU216HW,2013-03-25 09:50:00,
2013-03-25 10:55:00,56.8,48.7,29.41,SW,227,10.6,14.3,74,0.00,,,0.27,WUHU216HW,2013-03-25 09:55:00,
2013-03-25 11:00:00,56.8,48.9,29.41,South,173,7.1,15.2,75,0.00,,,0.27,WUHU216HW,2013-03-25 10:00:00,
2013-03-25 11:05:00,57.0,49.1,29.41,SSW,197,9.9,15.2,75,0.00,,,0.27,WUHU216HW,2013-03-25 10:05:00,
2013-03-25 11:10:00,57.9,49.6,29.41,SW,225,9.8,14.3,74,0.00,,,0.27,WUHU216HW,2013-03-25 10:10:00,
2013-03-25 11:15:00,58.2,49.2,29.40,SW,225,12.9,12.9,72,0.00,,,0.27,WUHU216HW,2013-03-25 10:15:00,
2013-03-25 11:20:00,57.9,48.5,29.40,South,191,11.3,12.9,71,0.00,,,0.27,WUHU216HW,2013-03-25 10:20:00,
2013-03-25 11:25:00,57.7,48.7,29.40,SW,225,13.6,13.6,72,0.00,,,0.27,WUHU216HW,2013-03-25 10:25:00,
2013-03-25 11:30:00,57.5,48.9,29.40,South,180,10.9,13.6,73,0.00,,,0.27,WUHU216HW,2013-03-25 10:30:00,
2013-03-25 11:35:00,58.4,49.4,29.40,SSW,199,6.6,11.6,72,0.00,,,0.27,WUHU216HW,2013-03-25 10:35:00,
2013-03-25 11:40:00,58.8,48.6,29.40,SSW,203,9.8,17.8,69,0.00,,,0.27,WUHU216HW,2013-03-25 10:40:00,
2013-03-25 11:45:00,59.5,49.2,29.39,SSW,203,14.3,19.6,69,0.00,,,0.27,WUHU216HW,2013-03-25 10:45:00,
2013-03-25 11:50:00,59.5,48.7,29.39,SSW,203,8.2,19.6,67,0.00,,,0.27,WUHU216HW,2013-03-25 10:50:00,
2013-03-25 11:55:00,59.7,48.7,29.39,SW,236,9.7,19.2,67,0.00,,,0.27,WUHU216HW,2013-03-25 10:55:00,
2013-03-25 12:00:00,60.4,49.2,29.39,WSW,243,8.6,19.2,66,0.00,,,0.27,WUHU216HW,2013-03-25 11:00:00,
2013-03-25 12:05:00,61.1,48.9,29.39,SW,225,14.0,15.6,64,0.00,,,0.27,WUHU216HW,2013-03-25 11:05:00,
2013-03-25 12:10:00,60.6,48.4,29.39,SW,228,6.2,14.0,64,0.00,,,0.27,WUHU216HW,2013-03-25 11:10:00,
2013-03-25 12:15:00,60.4,48.2,29.39,WSW,248,11.1,11.6,64,0.00,,,0.27,WUHU216HW,2013-03-25 11:15:00,
2013-03-25 12:20:00,59.5,48.1,29.39,SSW,203,14.0,20.5,66,0.00,,,0.27,WUHU216HW,2013-03-25 11:20:00,
2013-03-25 12:25:00,59.1,48.6,29.39,WSW,248,14.0,20.5,68,0.00,,,0.27,WUHU216HW,2013-03-25 11:25:00,
2013-03-25 12:30:00,59.5,48.5,29.39,SSW,194,5.8,17.2,67,0.00,,,0.27,WUHU216HW,2013-03-25 11:30:00,
2013-03-25 12:35:00,59.9,48.1,29.39,WSW,248,15.4,15.4,65,0.00,,,0.27,WUHU216HW,2013-03-25 11:35:00,
2013-03-25 12:40:00,60.0,47.4,29.39,SW,214,12.9,19.4,63,0.00,,,0.27,WUHU216HW,2013-03-25 11:40:00,
2013-03-25 12:45:00,59.7,47.1,29.39,SSE,150,11.3,19.4,63,0.00,,,0.27,WUHU216HW,2013-03-25 11:45:00,
2013-03-25 12:50:00,59.9,46.8,29.39,SSW,213,8.7,14.5,62,0.00,,,0.27,WUHU216HW,2013-03-25 11:50:00,
2013-03-25 12:55:00,60.0,47.0,29.39,SSW,194,16.6,20.5,62,0.00,,,0.27,WUHU216HW,2013-03-25 11:55:00,
2013-03-25 13:00:00,60.4,47.8,29.39,South,180,9.6,20.5,63,0.00,,,0.27,WUHU216HW,2013-03-25 12:00:00,
2013-03-25 13:05:00,59.9,48.1,29.39,SW,215,9.4,14.0,65,0.00,,,0.27,WUHU216HW,2013-03-25 12:05:00,
2013-03-25 13:10:00,59.9,48.2,29.39,WSW,240,6.6,14.0,65,0.00,,,0.27,WUHU216HW,2013-03-25 12:10:00,
2013-03-25 13:15:00,59.3,47.9,29.39,SSW,203,14.9,14.9,66,0.00,,,0.27,WUHU216HW,2013-03-25 12:15:00,
2013-03-25 13:20:00,59.1,48.6,29.38,SW,225,15.8,15.8,68,0.00,,,0.27,WUHU216HW,2013-03-25 12:20:00,
2013-03-25 13:25:00,59.1,48.6,29.38,WSW,248,9.3,15.8,68,0.00,,,0.27,WUHU216HW,2013-03-25 12:25:00,
2013-03-25 13:30:00,59.7,48.3,29.38,WSW,253,12.3,17.0,66,0.00,,,0.27,WUHU216HW,2013-03-25 12:30:00,
2013-03-25 13:35:00,60.4,48.8,29.38,West,270,11.6,17.0,66,0.00,,,0.27,WUHU216HW,2013-03-25 12:35:00,
2013-03-25 13:40:00,59.9,49.3,29.38,SW,225,12.9,16.1,68,0.00,,,0.27,WUHU216HW,2013-03-25 12:40:00,
2013-03-25 13:45:00,60.0,48.7,29.38,SW,217,11.1,16.1,66,0.00,,,0.27,WUHU216HW,2013-03-25 12:45:00,
2013-03-25 13:50:00,59.9,48.1,29.38,SW,217,13.1,17.0,65,0.00,,,0.27,WUHU216HW,2013-03-25 12:50:00,
2013-03-25 13:55:00,60.6,49.4,29.38,SW,225,7.3,17.0,67,0.00,,,0.27,WUHU216HW,2013-03-25 12:55:00,
2013-03-25 14:00:00,60.4,48.6,29.38,WSW,248,15.8,15.8,65,0.00,,,0.27,WUHU216HW,2013-03-25 13:00:00,
2013-03-25 14:05:00,60.0,48.7,29.38,SSW,203,17.2,19.6,66,0.00,,,0.27,WUHU216HW,2013-03-25 13:05:00,
2013-03-25 14:10:00,59.5,48.3,29.38,SW,224,12.5,19.6,66,0.00,,,0.27,WUHU216HW,2013-03-25 13:10:00,
2013-03-25 14:15:00,59.5,48.9,29.38,WSW,248,17.4,17.4,68,0.00,,,0.27,WUHU216HW,2013-03-25 13:15:00,
2013-03-25 14:20:00,59.5,49.4,29.38,WSW,248,8.9,17.4,69,0.00,,,0.27,WUHU216HW,2013-03-25 13:20:00,
2013-03-25 14:25:00,58.4,48.3,29.38,SW,217,6.6,18.3,69,0.00,,,0.27,WUHU216HW,2013-03-25 13:25:00,
2013-03-25 14:30:00,58.2,48.5,29.38,WSW,248,11.6,18.3,70,0.00,,,0.27,WUHU216HW,2013-03-25 13:30:00,
2013-03-25 14:35:00,58.4,48.7,29.38,SW,222,13.6,15.4,70,0.00,,,0.27,WUHU216HW,2013-03-25 13:35:00,
2013-03-25 14:40:00,58.4,47.9,29.39,SSW,213,16.3,16.7,68,0.00,,,0.27,WUHU216HW,2013-03-25 13:40:00,
2013-03-25 14:45:00,58.2,48.1,29.39,SW,225,13.1,16.7,69,0.00,,,0.27,WUHU216HW,2013-03-25 13:45:00,
2013-03-25 14:50:00,58.4,48.3,29.39,SSW,203,10.9,13.6,69,0.00,,,0.27,WUHU216HW,2013-03-25 13:50:00,
2013-03-25 14:55:00,58.8,48.6,29.39,SW,218,4.0,13.6,69,0.00,,,0.27,WUHU216HW,2013-03-25 13:55:00,
2013-03-25 15:00:00,58.8,48.6,29.39,SW,235,10.4,11.8,69,0.00,,,0.27,WUHU216HW,2013-03-25 14:00:00,
2013-03-25 15:05:00,58.6,48.5,29.39,SSW,203,8.2,11.8,69,0.00,,,0.27,WUHU216HW,2013-03-25 14:05:00,
2013-03-25 15:10:00,58.1,48.3,29.40,South,180,11.8,16.5,70,0.00,,,0.27,WUHU216HW,2013-03-25 14:10:00,
2013-03-25 15:15:00,58.2,48.5,29.39,SSE,158,4.4,16.5,70,0.00,,,0.27,WUHU216HW,2013-03-25 14:15:00,
2013-03-25 15:20:00,59.5,48.9,29.40,SSW,203,9.8,14.0,68,0.00,,,0.27,WUHU216HW,2013-03-25 14:20:00,
2013-03-25 15:25:00,59.5,48.1,29.40,SSW,203,8.2,14.0,66,0.00,,,0.27,WUHU216HW,2013-03-25 14:25:00,
2013-03-25 15:30:00,59.3,48.3,29.40,SSW,210,7.1,11.8,67,0.00,,,0.27,WUHU216HW,2013-03-25 14:30:00,
2013-03-25 15:35:00,59.3,48.3,29.40,SW,225,6.9,13.6,67,0.00,,,0.27,WUHU216HW,2013-03-25 14:35:00,
2013-03-25 15:40:00,59.7,48.7,29.40,WSW,240,5.3,13.6,67,0.00,,,0.27,WUHU216HW,2013-03-25 14:40:00,
2013-03-25 15:45:00,59.7,48.3,29.40,South,188,4.8,13.4,66,0.00,,,0.27,WUHU216HW,2013-03-25 14:45:00,
2013-03-25 15:50:00,59.5,47.7,29.40,SE,135,7.8,13.4,65,0.00,,,0.27,WUHU216HW,2013-03-25 14:50:00,
2013-03-25 15:55:00,60.6,48.8,29.40,SSE,158,5.2,11.4,65,0.00,,,0.27,WUHU216HW,2013-03-25 14:55:00,
2013-03-25 16:00:00,60.0,47.8,29.40,SW,214,5.2,14.7,64,0.00,,,0.27,WUHU216HW,2013-03-25 15:00:00,
2013-03-25 16:05:00,59.9,47.6,29.40,West,270,4.1,14.7,64,0.00,,,0.27,WUHU216HW,2013-03-25 15:05:00,
2013-03-25 16:10:00,59.5,47.3,29.40,West,270,7.8,9.6,64,0.00,,,0.27,WUHU216HW,2013-03-25 15:10:00,
2013-03-25 16:15:00,59.1,46.5,29.41,WNW,295,5.2,9.6,63,0.00,,,0.27,WUHU216HW,2013-03-25 15:15:00,
2013-03-25 16:20:00,58.8,46.2,29.41,NW,315,10.9,10.9,63,0.00,,,0.27,WUHU216HW,2013-03-25 15:20:00,
2013-03-25 16:25:00,58.6,46.4,29.41,WSW,248,4.4,10.9,64,0.00,,,0.27,WUHU216HW,2013-03-25 15:25:00,
2013-03-25 16:30:00,58.4,46.6,29.41,East,90,3.1,8.5,65,0.00,,,0.27,WUHU216HW,2013-03-25 15:30:00,
2013-03-25 16:35:00,58.2,47.3,29.41,West,261,2.7,8.2,67,0.00,,,0.27,WUHU216HW,2013-03-25 15:35:00,
2013-03-25 16:40:00,58.2,47.7,29.41,West,270,3.3,4.6,68,0.00,,,0.27,WUHU216HW,2013-03-25 15:40:00,
2013-03-25 16:45:00,58.2,48.1,29.41,WNW,282,4.4,8.9,69,0.00,,,0.27,WUHU216HW,2013-03-25 15:45:00,
2013-03-25 16:50:00,58.1,47.9,29.42,West,270,5.7,8.9,69,0.00,,,0.27,WUHU216HW,2013-03-25 15:50:00,
2013-03-25 16:55:00,58.2,48.5,29.42,WSW,257,6.0,8.0,70,0.00,,,0.27,WUHU216HW,2013-03-25 15:55:00,
2013-03-25 17:00:00,58.4,48.7,29.42,West,270,3.1,6.7,70,0.00,,,0.27,WUHU216HW,2013-03-25 16:00:00,
2013-03-25 17:05:00,58.1,48.3,29.42,WSW,238,7.6,10.5,70,0.00,,,0.27,WUHU216HW,2013-03-25 16:05:00,
2013-03-25 17:10:00,58.1,47.5,29.42,WSW,248,6.9,10.5,68,0.00,,,0.27,WUHU216HW,2013-03-25 16:10:00,
2013-03-25 17:15:00,58.1,47.5,29.42,WSW,248,5.8,6.9,68,0.00,,,0.27,WUHU216HW,2013-03-25 16:15:00,
2013-03-25 17:20:00,57.9,47.3,29.43,West,281,3.7,7.8,68,0.00,,,0.27,WUHU216HW,2013-03-25 16:20:00,
2013-03-25 17:25:00,57.9,47.7,29.43,West,270,4.0,7.8,69,0.00,,,0.27,WUHU216HW,2013-03-25 16:25:00,
2013-03-25 17:30:00,57.5,47.8,29.43,West,270,4.0,6.0,70,0.00,,,0.27,WUHU216HW,2013-03-25 16:30:00,
2013-03-25 17:35:00,57.5,48.2,29.43,West,270,3.8,6.0,71,0.00,,,0.27,WUHU216HW,2013-03-25 16:35:00,
2013-03-25 17:40:00,57.5,48.2,29.44,West,276,4.8,5.5,71,0.00,,,0.27,WUHU216HW,2013-03-25 16:40:00,
2013-03-25 17:45:00,57.3,47.6,29.44,WNW,287,6.0,9.1,70,0.00,,,0.27,WUHU216HW,2013-03-25 16:45:00,
2013-03-25 17:50:00,57.3,47.6,29.44,West,272,2.8,9.1,70,0.00,,,0.27,WUHU216HW,2013-03-25 16:50:00,
2013-03-25 17:55:00,57.3,47.6,29.45,WNW,286,5.7,8.5,70,0.00,,,0.27,WUHU216HW,2013-03-25 16:55:00,
2013-03-25 18:00:00,57.3,47.6,29.45,WSW,248,3.5,8.0,70,0.00,,,0.27,WUHU216HW,2013-03-25 17:00:00,
2013-03-25 18:05:00,57.2,47.8,29.45,WNW,286,5.0,6.9,71,0.00,,,0.27,WUHU216HW,2013-03-25 17:05:00,
2013-03-25 18:10:00,57.0,47.6,29.45,WNW,302,3.8,6.9,71,0.00,,,0.27,WUHU216HW,2013-03-25 17:10:00,
2013-03-25 18:15:00,56.8,47.8,29.45,WNW,293,6.9,7.8,72,0.00,,,0.27,WUHU216HW,2013-03-25 17:15:00,
2013-03-25 18:20:00,56.6,48.0,29.45,WSW,248,5.1,7.8,73,0.00,,,0.27,WUHU216HW,2013-03-25 17:20:00,
2013-03-25 18:25:00,56.4,47.8,29.46,West,260,5.6,6.0,73,0.00,,,0.27,WUHU216HW,2013-03-25 17:25:00,
2013-03-25 18:30:00,56.4,47.8,29.46,WSW,248,3.8,6.0,73,0.00,,,0.27,WUHU216HW,2013-03-25 17:30:00,
2013-03-25 18:35:00,56.3,47.7,29.46,WSW,248,4.1,6.2,73,0.00,,,0.27,WUHU216HW,2013-03-25 17:35:00,
2013-03-25 18:40:00,56.1,47.5,29.47,WSW,248,3.3,6.2,73,0.00,,,0.27,WUHU216HW,2013-03-25 17:40:00,
2013-03-25 18:45:00,56.1,47.5,29.47,WSW,244,1.0,3.5,73,0.00,,,0.27,WUHU216HW,2013-03-25 17:45:00,
2013-03-25 18:50:00,56.1,47.5,29.47,South,184,1.9,2.2,73,0.00,,,0.27,WUHU216HW,2013-03-25 17:50:00,
2013-03-25 18:55:00,56.1,47.5,29.47,NNW,338,0.0,2.2,73,0.00,,,0.27,WUHU216HW,2013-03-25 17:55:00,
2013-03-25 19:00:00,55.9,47.7,29.47,ESE,113,0.0,2.0,74,0.00,,,0.27,WUHU216HW,2013-03-25 18:00:00,
2013-03-25 19:05:00,56.1,47.8,29.47,South,180,1.1,2.0,74,0.00,,,0.27,WUHU216HW,2013-03-25 18:05:00,
2013-03-25 19:11:00,56.1,47.8,29.47,East,90,2.2,2.4,74,0.00,,,0.27,WUHU216HW,2013-03-25 18:11:00,
2013-03-25 19:16:00,56.1,48.0,29.47,North,0,0.0,2.4,74,0.00,,,0.27,WUHU216HW,2013-03-25 18:16:00,
2013-03-25 19:21:00,56.3,48.0,29.48,North,0,0.0,1.7,74,0.00,,,0.27,WUHU216HW,2013-03-25 18:21:00,
2013-03-25 19:26:00,56.1,47.8,29.48,West,275,1.6,2.0,74,0.00,,,0.27,WUHU216HW,2013-03-25 18:26:00,
2013-03-25 19:30:00,56.1,47.8,29.48,WSW,248,1.1,2.9,74,0.00,,,0.27,WUHU216HW,2013-03-25 18:30:00,
2013-03-25 19:35:00,55.9,47.7,29.49,NW,315,0.0,2.9,74,0.00,,,0.27,WUHU216HW,2013-03-25 18:35:00,
2013-03-25 19:41:00,56.1,48.2,29.49,WNW,293,1.4,2.4,75,0.00,,,0.27,WUHU216HW,2013-03-25 18:41:00,
2013-03-25 19:46:00,56.1,48.2,29.50,WNW,282,2.1,2.9,75,0.00,,,0.27,WUHU216HW,2013-03-25 18:46:00,
2013-03-25 19:51:00,55.9,48.0,29.50,West,270,0.8,2.9,75,0.00,,,0.27,WUHU216HW,2013-03-25 18:51:00,
2013-03-25 19:56:00,55.9,48.0,29.50,WSW,248,1.3,2.2,75,0.00,,,0.27,WUHU216HW,2013-03-25 18:56:00,
2013-03-25 20:01:00,55.9,48.0,29.50,NW,315,0.0,2.2,75,0.00,,,0.27,WUHU216HW,2013-03-25 19:01:00,
2013-03-25 20:06:00,55.9,48.0,29.50,West,270,1.3,1.5,75,0.00,,,0.27,WUHU216HW,2013-03-25 19:06:00,
2013-03-25 20:11:00,55.9,48.0,29.51,NW,315,1.7,3.8,75,0.00,,,0.27,WUHU216HW,2013-03-25 19:11:00,
2013-03-25 20:16:00,55.9,48.0,29.51,West,270,1.3,3.8,75,0.00,,,0.27,WUHU216HW,2013-03-25 19:16:00,
2013-03-25 20:21:00,55.9,48.0,29.51,WSW,248,0.0,1.5,75,0.00,,,0.27,WUHU216HW,2013-03-25 19:21:00,
2013-03-25 20:26:00,55.9,48.0,29.51,WSW,248,1.5,1.5,75,0.00,,,0.27,WUHU216HW,2013-03-25 19:26:00,
2013-03-25 20:31:00,55.9,48.0,29.52,WNW,293,1.9,3.8,75,0.00,,,0.27,WUHU216HW,2013-03-25 19:31:00,
2013-03-25 20:36:00,55.9,48.0,29.52,WSW,248,1.1,3.8,75,0.00,,,0.27,WUHU216HW,2013-03-25 19:36:00,
2013-03-25 20:41:00,55.9,48.0,29.52,West,270,4.0,5.1,75,0.00,,,0.27,WUHU216HW,2013-03-25 19:41:00,
2013-03-25 20:46:00,55.9,48.4,29.52,West,270,3.0,5.1,76,0.00,,,0.27,WUHU216HW,2013-03-25 19:46:00,
2013-03-25 20:51:00,55.9,48.0,29.52,WSW,248,3.3,4.4,75,0.00,,,0.27,WUHU216HW,2013-03-25 19:51:00,
2013-03-25 20:56:00,55.9,48.0,29.52,West,270,6.7,6.7,75,0.00,,,0.27,WUHU216HW,2013-03-25 19:56:00,
2013-03-25 21:01:00,56.1,48.2,29.52,SW,236,2.1,6.7,75,0.00,,,0.27,WUHU216HW,2013-03-25 20:01:00,
2013-03-25 21:06:00,56.1,48.2,29.52,WSW,244,4.7,5.3,75,0.00,,,0.27,WUHU216HW,2013-03-25 20:06:00,
2013-03-25 21:12:00,56.1,48.2,29.53,WSW,255,2.4,5.3,75,0.00,,,0.27,WUHU216HW,2013-03-25 20:12:00,
2013-03-25 21:17:00,55.9,48.0,29.53,WSW,248,3.1,5.8,75,0.00,,,0.27,WUHU216HW,2013-03-25 20:17:00,
2013-03-25 21:22:00,55.9,48.0,29.53,WSW,248,3.8,5.8,75,0.00,,,0.27,WUHU216HW,2013-03-25 20:22:00,
2013-03-25 21:27:00,55.7,48.2,29.53,WSW,241,3.1,6.2,75,0.00,,,0.27,WUHU216HW,2013-03-25 20:27:00,
2013-03-25 21:32:00,55.5,48.0,29.53,SSW,203,5.3,6.2,76,0.00,,,0.27,WUHU216HW,2013-03-25 20:32:00,
2013-03-25 21:37:00,55.7,48.2,29.53,WSW,258,1.6,6.2,76,0.00,,,0.27,WUHU216HW,2013-03-25 20:37:00,
2013-03-25 21:42:00,55.7,48.2,29.53,NNW,338,1.5,4.0,76,0.00,,,0.27,WUHU216HW,2013-03-25 20:42:00,
2013-03-25 21:47:00,55.7,48.2,29.53,SW,225,4.0,5.8,76,0.00,,,0.27,WUHU216HW,2013-03-25 20:47:00,
2013-03-25 21:52:00,55.5,48.0,29.53,West,270,2.6,5.8,76,0.00,,,0.27,WUHU216HW,2013-03-25 20:52:00,
2013-03-25 21:57:00,55.5,48.0,29.54,WNW,302,2.7,4.9,76,0.00,,,0.27,WUHU216HW,2013-03-25 20:57:00,
2013-03-25 22:02:00,55.2,47.3,29.53,NW,315,1.1,4.9,75,0.00,,,0.27,WUHU216HW,2013-03-25 21:02:00,
2013-03-25 22:07:00,55.0,46.8,29.53,West,270,1.5,4.6,74,0.00,,,0.27,WUHU216HW,2013-03-25 21:07:00,
2013-03-25 22:12:00,55.0,46.8,29.54,West,270,0.0,2.4,74,0.00,,,0.27,WUHU216HW,2013-03-25 21:12:00,
2013-03-25 22:17:00,55.0,46.1,29.54,NW,309,2.8,4.0,72,0.00,,,0.27,WUHU216HW,2013-03-25 21:17:00,
2013-03-25 22:22:00,54.8,46.0,29.54,SW,225,4.2,4.4,72,0.00,,,0.27,WUHU216HW,2013-03-25 21:22:00,
2013-03-25 22:27:00,55.0,46.8,29.54,SW,225,0.0,4.4,74,0.00,,,0.27,WUHU216HW,2013-03-25 21:27:00,
2013-03-25 22:32:00,55.0,47.2,29.54,SSE,166,2.0,3.3,75,0.00,,,0.27,WUHU216HW,2013-03-25 21:32:00,
2013-03-25 22:37:00,55.2,47.3,29.54,WNW,282,1.4,4.0,75,0.00,,,0.27,WUHU216HW,2013-03-25 21:37:00,
2013-03-25 22:42:00,55.2,47.3,29.54,WNW,293,3.8,4.0,75,0.00,,,0.27,WUHU216HW,2013-03-25 21:42:00,
2013-03-25 22:47:00,55.2,47.3,29.54,SW,225,3.4,4.2,75,0.00,,,0.27,WUHU216HW,2013-03-25 21:47:00,
2013-03-25 22:52:00,55.2,47.3,29.55,West,261,3.2,8.0,75,0.00,,,0.27,WUHU216HW,2013-03-25 21:52:00,
2013-03-25 22:57:00,55.0,47.5,29.55,West,280,6.6,8.0,75,0.00,,,0.27,WUHU216HW,2013-03-25 21:57:00,
2013-03-25 23:02:00,55.0,47.2,29.55,WNW,284,3.8,7.3,75,0.00,,,0.27,WUHU216HW,2013-03-25 22:02:00,
2013-03-25 23:07:00,55.0,47.5,29.55,WNW,283,5.2,7.6,76,0.00,,,0.27,WUHU216HW,2013-03-25 22:07:00,
2013-03-25 23:12:00,55.0,47.5,29.55,NW,315,5.3,7.6,76,0.00,,,0.27,WUHU216HW,2013-03-25 22:12:00,
2013-03-25 23:17:00,55.0,47.5,29.56,WSW,258,2.2,5.3,76,0.00,,,0.27,WUHU216HW,2013-03-25 22:17:00,
2013-03-25 23:23:00,55.0,47.5,29.55,West,270,2.4,4.9,76,0.00,,,0.27,WUHU216HW,2013-03-25 22:23:00,
2013-03-25 23:28:00,54.8,47.3,29.55,North,0,4.2,4.2,76,0.00,,,0.27,WUHU216HW,2013-03-25 22:28:00,
2013-03-25 23:33:00,54.6,47.2,29.55,WNW,284,3.3,6.9,76,0.00,,,0.27,WUHU216HW,2013-03-25 22:33:00,
2013-03-25 23:38:00,54.6,47.2,29.56,West,270,3.5,6.9,76,0.00,,,0.27,WUHU216HW,2013-03-25 22:38:00,
2013-03-25 23:43:00,54.6,47.2,29.56,West,270,0.8,6.4,76,0.00,,,0.27,WUHU216HW,2013-03-25 22:43:00,
2013-03-25 23:48:00,54.6,47.2,29.56,West,270,2.6,4.6,76,0.00,,,0.27,WUHU216HW,2013-03-25 22:48:00,
2013-03-25 23:53:00,54.6,46.8,29.55,SSE,159,3.4,4.6,75,0.00,,,0.27,WUHU216HW,2013-03-25 22:53:00,
2013-03-25 23:58:00,54.6,46.8,29.56,SW,225,1.3,3.8,75,0.00,,,0.27,WUHU216HW,2013-03-25 22:58:00,